Total_Precipitation_Accumulation
0.13 0.15 0.19 0.26 0.28 0.31 0.34 0.34 0.34 0.39 0.44 0.45 0.41 0.39 0.41 0.49 0.59 0.65 0.66 0.68 0.72 0.73 0.75 0.77 0.77 0.76 0.78 0.77 0.78 0.78 0.82 0.99 1.00 0.46 0.31 0.37 0.50 0.55 0.54 0.51 0.50 0.54 0.56
0.15 0.17 0.19 0.24 0.31 0.35 0.39 0.41 0.44 0.46 0.48 0.50 0.52 0.49 0.43 0.42 0.50 0.60 0.64 0.66 0.71 0.74 0.77 0.82 0.84 0.84 0.87 0.88 0.92 0.91 0.88 0.91 1.02 0.74 0.42 0.41 0.49 0.56 0.62 0.61 0.54 0.54 0.55
0.16 0.18 0.22 0.26 0.33 0.40 0.45 0.48 0.49 0.52 0.56 0.56 0.57 0.58 0.55 0.54 0.57 0.61 0.65 0.67 0.68 0.69 0.71 0.78 0.83 0.91 0.96 0.93 0.94 0.94 0.89 0.83 0.86 0.85 0.59 0.46 0.50 0.55 0.62 0.65 0.64 0.63 0.61
0.24 0.25 0.30 0.37 0.41 0.46 0.51 0.52 0.52 0.54 0.58 0.63 0.64 0.63 0.65 0.71 0.83 0.85 0.77 0.76 0.72 0.69 0.69 0.73 0.80 0.92 1.01 1.09 1.15 1.06 0.97 1.01 1.01 1.01 0.82 0.64 0.59 0.61 0.75 0.80 0.77 0.73 0.70
0.38 0.40 0.40 0.40 0.44 0.44 0.47 0.50 0.52 0.56 0.58 0.60 0.60 0.63 0.69 0.82 1.11 1.14 0.97 0.87 0.81 0.77 0.73 0.74 0.78 0.94 1.15 1.35 1.48 1.42 1.37 1.40 1.34 1.30 1.14 0.92 0.78 0.79 0.87 0.85 0.89 0.80 0.79
0.46 0.49 0.47 0.42 0.41 0.46 0.46 0.47 0.51 0.55 0.55 0.54 0.54 0.56 0.67 0.84 1.23 1.27 1.06 0.85 0.82 0.82 0.81 0.74 0.72 0.81 0.93 1.11 1.33 1.40 1.49 1.60 1.64 1.58 1.45 1.25 0.96 0.86 0.91 1.07 1.19 1.19 1.06
0.47 0.52 0.53 0.46 0.41 0.44 0.46 0.45 0.44 0.45 0.47 0.47 0.47 0.48 0.51 0.68 1.09 1.19 1.04 0.80 0.72 0.73 0.73 0.68 0.68 0.67 0.73 0.71 0.84 0.94 1.03 1.21 1.44 1.60 1.68 1.36 1.09 0.98 1.15 1.37 1.42 1.39 1.16
0.45 0.45 0.46 0.40 0.35 0.37 0.42 0.40 0.37 0.37 0.41 0.43 0.43 0.42 0.40 0.46 0.84 1.11 1.00 0.71 0.65 0.66 0.66 0.68 0.69 0.66 0.66 0.74 0.82 0.85 0.79 0.82 1.03 1.28 1.43 1.29 1.19 1.20 1.39 1.66 1.81 1.86 1.53
0.33 0.32 0.33 0.30 0.29 0.34 0.38 0.35 0.32 0.31 0.33 0.36 0.39 0.43 0.41 0.40 0.65 1.05 1.08 0.74 0.69 0.65 0.66 0.78 0.83 0.74 0.78 0.95 1.07 1.04 0.85 0.73 0.80 1.10 1.37 1.41 1.45 1.64 1.85 2.21 2.48 2.55 2.25
0.23 0.23 0.28 0.26 0.24 0.29 0.34 0.32 0.31 0.30 0.32 0.35 0.38 0.46 0.46 0.40 0.55 0.96 1.23 0.86 0.76 0.67 0.68 0.80 1.06 1.03 1.00 1.07 1.13 1.16 1.11 0.84 0.75 0.80 0.90 1.01 1.05 1.13 1.49 1.85 2.11 2.35 2.31
0.17 0.19 0.26 0.27 0.25 0.26 0.28 0.31 0.31 0.32 0.33 0.36 0.38 0.43 0.46 0.42 0.46 0.77 1.24 1.14 0.91 0.81 0.80 0.86 0.99 1.08 1.07 1.08 1.14 1.12 1.16 1.10 1.05 1.03 0.98 0.92 0.95 1.06 1.22 1.49 1.74 1.99 2.20
0.15 0.18 0.23 0.30 0.28 0.27 0.28 0.29 0.29 0.33 0.37 0.38 0.40 0.42 0.44 0.46 0.49 0.66 1.01 1.23 1.14 0.94 0.88 0.81 0.89 1.01 1.06 1.08 1.05 1.06 1.14 1.18 1.12 1.09 1.02 0.95 0.93 0.98 1.05 1.20 1.45 1.61 1.75
0.14 0.18 0.23 0.29 0.28 0.27 0.28 0.29 0.30 0.33 0.39 0.43 0.45 0.47 0.47 0.48 0.53 0.67 0.80 0.92 1.04 0.97 0.95 1.09 1.05 1.01 0.97 0.92 0.91 0.97 0.98 0.95 1.00 0.98 0.87 0.78 0.74 0.79 0.90 1.05 1.23 1.41 1.54
0.13 0.18 0.24 0.28 0.29 0.28 0.27 0.28 0.30 0.37 0.51 0.59 0.58 0.57 0.53 0.52 0.62 0.82 0.87 0.83 0.91 0.94 0.94 1.03 1.03 0.92 0.82 0.78 0.79 0.80 0.80 0.87 0.96 0.96 0.84 0.73 0.69 0.75 0.86 0.97 1.14 1.29 1.52
0.14 0.18 0.24 0.28 0.30 0.30 0.28 0.29 0.34 0.38 0.62 0.87 0.84 0.82 0.83 0.81 0.90 1.19 1.20 1.09 1.10 1.13 1.14 1.13 1.03 0.90 0.81 0.72 0.68 0.65 0.66 0.77 0.89 0.88 0.88 0.86 0.82 0.83 0.86 0.90 1.08 1.24 1.41
0.18 0.20 0.24 0.29 0.32 0.31 0.31 0.31 0.34 0.38 0.48 0.58 0.65 0.77 0.78 0.93 1.06 1.06 1.04 1.04 1.08 1.12 1.14 1.08 0.91 0.80 0.74 0.69 0.68 0.68 0.65 0.68 0.71 0.78 0.84 0.86 0.88 0.90 0.90 0.90 1.06 1.21 1.28
0.22 0.25 0.30 0.31 0.33 0.34 0.36 0.37 0.37 0.34 0.36 0.41 0.46 0.54 0.68 0.85 0.92 0.92 0.97 0.93 0.93 0.95 0.94 0.83 0.75 0.72 0.69 0.67 0.66 0.67 0.64 0.61 0.66 0.76 0.83 0.86 0.89 0.93 0.94 0.95 1.00 1.09 1.15
0.27 0.30 0.33 0.35 0.36 0.37 0.39 0.40 0.40 0.41 0.41 0.40 0.41 0.46 0.56 0.69 0.79 0.83 0.89 0.86 0.82 0.76 0.73 0.73 0.70 0.68 0.66 0.66 0.66 0.67 0.65 0.64 0.68 0.73 0.76 0.78 0.83 0.91 0.93 0.88 0.90 1.01 1.09
0.26 0.29 0.32 0.36 0.38 0.39 0.42 0.43 0.43 0.42 0.43 0.44 0.44 0.48 0.55 0.61 0.68 0.75 0.76 0.70 0.70 0.67 0.64 0.65 0.63 0.67 0.69 0.67 0.66 0.65 0.67 0.68 0.66 0.68 0.69 0.70 0.74 0.84 0.86 0.79 0.81 0.92 1.12
0.24 0.31 0.37 0.38 0.40 0.41 0.43 0.46 0.47 0.48 0.48 0.48 0.51 0.56 0.64 0.70 0.73 0.71 0.67 0.64 0.65 0.65 0.62 0.65 0.62 0.63 0.68 0.69 0.69 0.67 0.68 0.67 0.65 0.65 0.66 0.67 0.70 0.79 0.82 0.77 0.82 0.93 1.02
0.28 0.31 0.37 0.38 0.39 0.42 0.46 0.51 0.52 0.55 0.57 0.54 0.52 0.56 0.83 0.96 0.84 0.71 0.67 0.68 0.71 0.72 0.69 0.67 0.62 0.58 0.61 0.65 0.68 0.67 0.67 0.64 0.61 0.66 0.68 0.68 0.72 0.79 0.78 0.82 0.85 0.90 0.98
0.34 0.38 0.39 0.41 0.42 0.45 0.51 0.53 0.55 0.57 0.57 0.55 0.52 0.52 0.61 0.63 0.62 0.61 0.62 0.65 0.69 0.72 0.73 0.74 0.68 0.58 0.59 0.68 0.72 0.74 0.68 0.61 0.58 0.66 0.72 0.72 0.74 0.78 0.81 0.85 0.87 0.92 0.99
0.40 0.43 0.43 0.42 0.43 0.49 0.50 0.47 0.51 0.54 0.55 0.54 0.52 0.52 0.53 0.56 0.58 0.61 0.64 0.64 0.68 0.71 0.70 0.71 0.70 0.61 0.55 0.61 0.68 0.77 0.79 0.69 0.65 0.75 0.86 0.84 0.80 0.81 0.84 0.86 0.86 0.91 0.95
0.46 0.47 0.48 0.46 0.46 0.48 0.49 0.48 0.50 0.51 0.54 0.55 0.53 0.53 0.55 0.56 0.57 0.60 0.62 0.64 0.67 0.68 0.68 0.69 0.67 0.62 0.57 0.60 0.63 0.65 0.70 0.78 0.95 1.06 1.03 1.03 0.94 0.86 0.86 0.89 0.86 0.86 0.91
0.47 0.48 0.49 0.50 0.51 0.53 0.54 0.51 0.50 0.51 0.54 0.55 0.55 0.54 0.54 0.54 0.55 0.57 0.59 0.63 0.67 0.67 0.64 0.64 0.65 0.62 0.59 0.57 0.57 0.60 0.68 0.85 1.07 1.36 1.53 1.46 1.20 0.98 0.94 0.93 0.89 0.87 0.91
0.46 0.44 0.46 0.48 0.52 0.56 0.60 0.59 0.56 0.56 0.59 0.57 0.56 0.57 0.58 0.59 0.58 0.59 0.62 0.69 0.74 0.72 0.69 0.66 0.62 0.59 0.59 0.59 0.58 0.62 0.75 0.96 1.16 1.41 1.78 1.92 1.56 1.17 1.03 1.04 0.96 0.95 0.99